| time (UTC) | temp C | wind direction | speed KPH | gust KPH | rain 1hr cm | rain 24hr cm | rain mn cm | humidity % | barometer mb |
| 20260505101329 | 12 | 188 | 0.0 | 1.6 | 0.00 | 0.36 | 0.00 | 81 | 1023.8 |
| 20260505100140 | 13 | 68 | 3.2 | 4.8 | 0.00 | 0.36 | 0.00 | 80 | 1023.5 |
| 20260505095133 | 13 | 181 | 1.6 | 4.8 | 0.00 | 0.36 | 0.00 | 80 | 1023.5 |
| 20260505093759 | 13 | 124 | 1.6 | 3.2 | 0.00 | 0.36 | 0.00 | 81 | 1023.4 |
| 20260505092709 | 13 | 166 | 3.2 | 4.8 | 0.00 | 0.36 | 0.00 | 81 | 1023.2 |
| 20260505091419 | 13 | 166 | 1.6 | 3.2 | 0.00 | 0.36 | 0.00 | 81 | 1023.1 |
| 20260505090125 | 13 | 131 | 1.6 | 3.2 | 0.00 | 0.36 | 0.00 | 79 | 1023.0 |
| 20260505085119 | 14 | 158 | 1.6 | 3.2 | 0.00 | 0.36 | 0.00 | 77 | 1022.8 |
| 20260505083745 | 14 | 115 | 1.6 | 1.6 | 0.00 | 0.36 | 0.00 | 76 | 1022.8 |
| 20260505082556 | 16 | 0.0 | 0.0 | 0.00 | 0.36 | 0.00 | 72 | 1022.5 | |
| 20260505081446 | 15 | 0.0 | 3.2 | 0.00 | 0.36 | 0.00 | 72 | 1022.2 | |
| 20260505080112 | 15 | 162 | 1.6 | 3.2 | 0.00 | 0.36 | 0.00 | 73 | 1022.0 |
| 20260505075025 | 16 | 141 | 1.6 | 3.2 | 0.00 | 0.36 | 0.00 | 73 | 1021.9 |
| 20260505073935 | 16 | 116 | 3.2 | 3.2 | 0.00 | 0.36 | 0.00 | 71 | 1021.7 |
| 20260505072541 | 17 | 156 | 1.6 | 3.2 | 0.00 | 0.36 | 0.00 | 66 | 1021.5 |
| 20260505071351 | 18 | 167 | 1.6 | 1.6 | 0.00 | 0.36 | 0.00 | 64 | 1021.3 |
| 20260505070200 | 20 | 158 | 4.8 | 6.4 | 0.00 | 0.36 | 0.00 | 58 | 1021.1 |
| 20260505065011 | 20 | 135 | 4.8 | 9.7 | 0.00 | 0.36 | 0.00 | 55 | 1021.0 |
| 20260505063821 | 21 | 108 | 3.2 | 9.7 | 0.00 | 0.36 | 0.00 | 51 | 1020.7 |
| 20260505062711 | 22 | 183 | 4.8 | 11.3 | 0.00 | 0.36 | 0.00 | 42 | 1020.6 |
| 20260505061417 | 22 | 220 | 3.2 | 6.4 | 0.00 | 0.36 | 0.00 | 40 | 1020.3 |
| 20260505060147 | 22 | 202 | 1.6 | 4.8 | 0.00 | 0.36 | 0.00 | 41 | 1020.2 |
| 20260505055101 | 23 | 195 | 3.2 | 4.8 | 0.00 | 0.36 | 0.00 | 40 | 1020.1 |
| 20260505053806 | 23 | 214 | 9.7 | 12.9 | 0.00 | 0.36 | 0.00 | 40 | 1020.0 |
| 20260505052616 | 22 | 201 | 4.8 | 6.4 | 0.00 | 0.36 | 0.00 | 40 | 1019.8 |
| 20260505051323 | 23 | 159 | 6.4 | 12.9 | 0.00 | 0.36 | 0.00 | 40 | 1019.7 |
| 20260505050237 | 22 | 206 | 1.6 | 9.7 | 0.00 | 0.36 | 0.00 | 40 | 1019.6 |
| 20260505041414 | 22 | 160 | 4.8 | 9.7 | 0.00 | 0.36 | 0.00 | 40 | 1019.5 |
| 20260505040223 | 23 | 146 | 4.8 | 9.7 | 0.00 | 0.36 | 0.00 | 39 | 1019.4 |
| 20260505035032 | 23 | 232 | 8.0 | 17.7 | 0.00 | 0.36 | 0.00 | 39 | 1019.2 |
| 20260505033841 | 22 | 200 | 3.2 | 12.9 | 0.00 | 0.36 | 0.00 | 39 | 1019.3 |
| 20260505032546 | 22 | 177 | 3.2 | 11.3 | 0.00 | 0.36 | 0.00 | 40 | 1019.4 |
| 20260505031437 | 22 | 231 | 8.0 | 12.9 | 0.00 | 0.36 | 0.00 | 40 | 1019.5 |
| 20260505030207 | 22 | 224 | 6.4 | 9.7 | 0.00 | 0.36 | 0.00 | 40 | 1019.6 |
| 20260505025018 | 22 | 193 | 6.4 | 9.7 | 0.00 | 0.36 | 0.00 | 42 | 1019.7 |
| 20260505023825 | 22 | 162 | 6.4 | 17.7 | 0.00 | 0.36 | 0.00 | 42 | 1019.7 |
| 20260505022636 | 22 | 180 | 8.0 | 14.5 | 0.00 | 0.36 | 0.00 | 43 | 1019.7 |
| 20260505021339 | 22 | 152 | 8.0 | 16.1 | 0.00 | 0.36 | 0.00 | 42 | 1019.9 |
| 20260505020149 | 21 | 185 | 4.8 | 14.5 | 0.00 | 0.36 | 0.00 | 44 | 1020.1 |
| 20260505015102 | 22 | 223 | 11.3 | 16.1 | 0.00 | 0.36 | 0.00 | 43 | 1020.2 |
| 20260505013848 | 21 | 209 | 11.3 | 22.5 | 0.00 | 0.36 | 0.00 | 44 | 1020.3 |
| 20260505012618 | 21 | 221 | 6.4 | 20.9 | 0.00 | 0.36 | 0.00 | 45 | 1020.3 |
| 20260505011429 | 21 | 333 | 3.2 | 6.4 | 0.00 | 0.36 | 0.00 | 47 | 1020.6 |
| 20260505010135 | 21 | 287 | 4.8 | 6.4 | 0.00 | 0.36 | 0.00 | 48 | 1020.4 |
| 20260505004945 | 21 | 291 | 3.2 | 3.2 | 0.00 | 0.36 | 0.00 | 46 | 1020.7 |
| 20260505003856 | 21 | 156 | 3.2 | 6.4 | 0.00 | 0.38 | 0.00 | 49 | 1020.8 |
| 20260505002646 | 20 | 257 | 1.6 | 3.2 | 0.00 | 0.38 | 0.00 | 51 | 1020.6 |
| 20260505001416 | 20 | 210 | 1.6 | 6.4 | 0.00 | 0.41 | 0.00 | 50 | 1020.6 |
| 20260505000123 | 20 | 336 | 4.8 | 9.7 | 0.00 | 0.41 | 0.00 | 53 | 1020.5 |
| 20260504234932 | 19 | 313 | 3.2 | 6.4 | 0.00 | 0.43 | 0.00 | 53 | 1020.8 |
| 20260504233845 | 18 | 218 | 4.8 | 12.9 | 0.00 | 0.43 | 0.00 | 54 | 1020.8 |
| 20260504232551 | 18 | 206 | 6.4 | 17.7 | 0.00 | 0.43 | 0.00 | 55 | 1021.0 |
| 20260504231359 | 18 | 225 | 8.0 | 17.7 | 0.00 | 0.43 | 0.00 | 55 | 1020.9 |
| 20260504230249 | 18 | 237 | 14.5 | 24.1 | 0.00 | 0.46 | 0.00 | 54 | 1020.8 |
| 20260504224915 | 18 | 284 | 6.4 | 11.3 | 0.00 | 0.46 | 0.00 | 55 | 1020.8 |
| 20260504223828 | 18 | 228 | 6.4 | 12.9 | 0.00 | 0.48 | 0.00 | 57 | 1020.7 |
| 20260504222719 | 17 | 215 | 4.8 | 12.9 | 0.00 | 0.53 | 0.00 | 60 | 1020.6 |
| 20260504221346 | 17 | 283 | 4.8 | 12.9 | 0.00 | 0.56 | 0.00 | 60 | 1020.4 |
| 20260504220156 | 16 | 189 | 6.4 | 14.5 | 0.00 | 0.56 | 0.00 | 61 | 1020.4 |
| 20260504215005 | 17 | 269 | 4.8 | 14.5 | 0.00 | 0.56 | 0.00 | 59 | 1020.0 |
| 20260504213815 | 17 | 98 | 9.7 | 22.5 | 0.00 | 0.56 | 0.00 | 55 | 1019.7 |
| 20260504212623 | 16 | 200 | 4.8 | 12.9 | 0.00 | 0.56 | 0.00 | 62 | 1019.3 |
| 20260504211330 | 16 | 269 | 8.0 | 24.1 | 0.00 | 0.56 | 0.00 | 63 | 1018.5 |
| 20260504210140 | 15 | 284 | 14.5 | 29.0 | 0.00 | 0.56 | 0.00 | 64 | 1018.5 |
| 20260504204950 | 15 | 272 | 8.0 | 12.9 | 0.00 | 0.56 | 0.00 | 66 | 1019.0 |
| 20260504203800 | 15 | 254 | 4.8 | 12.9 | 0.00 | 0.56 | 0.00 | 68 | 1019.0 |
| 20260504202610 | 13 | 270 | 3.2 | 4.8 | 0.00 | 0.56 | 0.00 | 71 | 1019.0 |
| 20260504201420 | 12 | 335 | 3.2 | 4.8 | 0.00 | 0.56 | 0.00 | 75 | 1019.1 |
| 20260504200126 | 10 | 117 | 3.2 | 4.8 | 0.00 | 0.56 | 0.00 | 87 | 1019.0 |
| 20260504194936 | 11 | 178 | 1.6 | 3.2 | 0.00 | 0.56 | 0.00 | 86 | 1019.0 |
| 20260504193849 | 11 | 166 | 1.6 | 1.6 | 0.00 | 0.56 | 0.00 | 85 | 1019.0 |
| 20260504192555 | 11 | 104 | 1.6 | 4.8 | 0.00 | 0.56 | 0.00 | 83 | 1018.7 |
| 20260504191405 | 12 | 335 | 1.6 | 6.4 | 0.00 | 0.56 | 0.00 | 79 | 1018.9 |
| 20260504190215 | 12 | 180 | 0.0 | 3.2 | 0.00 | 0.56 | 0.00 | 80 | 1018.9 |
| 20260504185001 | 11 | 175 | 0.0 | 1.6 | 0.00 | 0.56 | 0.00 | 85 | 1018.9 |
| 20260504183834 | 12 | 179 | 1.6 | 3.2 | 0.00 | 0.56 | 0.00 | 82 | 1019.0 |
| 20260504182644 | 12 | 162 | 1.6 | 3.2 | 0.00 | 0.56 | 0.00 | 78 | 1018.9 |
| 20260504181349 | 13 | 118 | 3.2 | 6.4 | 0.00 | 0.56 | 0.00 | 76 | 1019.0 |
| 20260504180159 | 15 | 133 | 1.6 | 1.6 | 0.00 | 0.56 | 0.00 | 71 | 1018.7 |
| 20260504175009 | 15 | 236 | 3.2 | 4.8 | 0.00 | 0.56 | 0.00 | 67 | 1018.5 |
| 20260504173819 | 15 | 202 | 8.0 | 12.9 | 0.00 | 0.56 | 0.00 | 67 | 1018.5 |
| 20260504172629 | 15 | 229 | 1.6 | 4.8 | 0.00 | 0.56 | 0.00 | 68 | 1018.8 |
| 20260504171336 | 16 | 225 | 6.4 | 11.3 | 0.00 | 0.56 | 0.00 | 65 | 1018.9 |
| 20260504170226 | 16 | 261 | 11.3 | 22.5 | 0.00 | 0.56 | 0.00 | 63 | 1018.7 |
| 20260504160213 | 16 | 257 | 3.2 | 6.4 | 0.00 | 0.56 | 0.00 | 70 | 1018.9 |
| 20260504150224 | 16 | 249 | 8.0 | 14.5 | 0.00 | 0.56 | 0.00 | 68 | 1018.7 |
| 20260504140209 | 16 | 357 | 3.2 | 4.8 | 0.00 | 0.56 | 0.00 | 77 | 1018.6 |
| 20260504130154 | 15 | 204 | 1.6 | 3.2 | 0.03 | 0.56 | 0.56 | 94 | 1018.7 |
| 20260504120142 | 16 | 54 | 1.6 | 3.2 | 0.03 | 0.53 | 0.53 | 94 | 1019.0 |
| 20260504110228 | 17 | 230 | 1.6 | 1.6 | 0.30 | 0.51 | 0.51 | 91 | 1018.9 |